Weather History for Valparaiso, FL

Change the Weather History Date:

Friday, June 14, 2013

  Actual Average Record
Temperature  
Mean Temperature 86 °F -  
Max Temperature 94 °F 90 °F 102 °F (1952)
Min Temperature 78 °F 67 °F 59 °F (1955)
Cooling Degree Days 20    
Growing Degree Days 36 (Base 50)    
Moisture  
Dew Point 73 °F    
Average Humidity 68    
Maximum Humidity 86    
Minimum Humidity 44    
Precipitation  
Precipitation 0.00 in - - ()
Sea Level Pressure  
Sea Level Pressure 29.90 in    
Wind  
Wind Speed 7 mph (NW)    
Max Wind Speed 15 mph    
Max Gust Speed 17 mph    
Visibility 10 miles    
Events      
Averages and records for this station are not official NWS values.
T = Trace of Precipitation, MM = Missing Value Source: NWS Daily Summary

Daily Weather History Graph

Daily Weather History Graph

Search for Another Location

Airport:

Trip Planner

Search our weather history database for the weather conditions in past years. The results will help you decide how hot, cold, wet, or windy it might be!

Date:

Astronomy

Jun. 14, 2013 Rise Set
Actual Time 5:43 AM CDT 7:49 PM CDT
Civil Twilight 5:15 AM CDT 8:17 PM CDT
Nautical Twilight 4:42 AM CDT 8:50 PM CDT
Astronomical Twilight 4:06 AM CDT 9:26 PM CDT
Moon 10:58 AM CDT (6/14) 11:47 PM CDT (6/14)
Length of Visible Light 15h 01m
Length of Day
14h 06m
Waxing Crescent, 30% of the Moon is Illuminated
Jun 14
Waxing Crescent
Jun 16
First Quarter
Jun 23
Full
Jun 29
Last Quarter
Jul 8
New

Hourly Weather History & Observations

Time (CDT) Temp. Heat Index Dew Point Humidity Pressure Visibility Wind Dir Wind Speed Gust Speed Precip Events Conditions
12:55 AM 81.9 °F 89.2 °F 76.1 °F 83% 29.91 in 10.0 mi WSW 6.9 mph - N/A   Mostly Cloudy
1:55 AM 82.2 °F 89.6 °F 75.9 °F 81% 29.92 in 10.0 mi Variable 4.6 mph - N/A   Overcast
2:55 AM 82.0 °F 90.2 °F 77.2 °F 85% 29.88 in 10.0 mi WSW 4.6 mph - N/A   Overcast
3:55 AM 82.0 °F 89.9 °F 76.8 °F 84% 29.86 in 10.0 mi Variable 6.9 mph - N/A   Overcast
4:55 AM 81.5 °F 88.7 °F 76.6 °F 85% 29.86 in 10.0 mi WSW 3.5 mph - N/A   Overcast
5:55 AM 81.3 °F 88.5 °F 76.8 °F 86% 29.88 in 10.0 mi West 3.5 mph - N/A   Mostly Cloudy
6:55 AM 82.0 °F 88.9 °F 75.2 °F 80% 29.90 in 10.0 mi Variable 4.6 mph - N/A   Overcast
7:55 AM 84.0 °F 90.2 °F 72.9 °F 69% 29.90 in 10.0 mi Variable 5.8 mph - N/A   Mostly Cloudy
8:55 AM 85.5 °F 91.8 °F 72.3 °F 65% 29.90 in 10.0 mi NW 4.6 mph - N/A   Mostly Cloudy
9:55 AM 87.8 °F 96.1 °F 73.6 °F 63% 29.91 in 10.0 mi NNW 10.4 mph 17.3 mph N/A   Mostly Cloudy
10:21 AM 87.8 °F 95.6 °F 73.4 °F 62% 29.89 in 10.0 mi NNW 11.5 mph - N/A   Mostly Cloudy
10:55 AM 88.0 °F 96.5 °F 74.1 °F 63% 29.91 in 10.0 mi North 11.5 mph - N/A   Mostly Cloudy
11:55 AM 89.6 °F 98.7 °F 73.9 °F 60% 29.91 in 10.0 mi NNE 9.2 mph - N/A   Mostly Cloudy
12:55 PM 90.1 °F 97.8 °F 72.7 °F 56% 29.90 in 10.0 mi NW 10.4 mph - N/A   Mostly Cloudy
1:55 PM 92.7 °F 98.3 °F 70.0 °F 47% 29.89 in 10.0 mi North 8.1 mph 17.3 mph N/A   Mostly Cloudy
2:55 PM 92.1 °F 95.7 °F 67.1 °F 44% 29.89 in 10.0 mi NNW 6.9 mph - N/A   Mostly Cloudy
3:55 PM 88.9 °F 99.7 °F 75.6 °F 65% 29.88 in 10.0 mi SW 15.0 mph - N/A   Mostly Cloudy
4:33 PM 87.8 °F 97.6 °F 75.2 °F 66% 29.86 in 10.0 mi SW 3.5 mph - N/A   Mostly Cloudy
4:55 PM 87.6 °F 98.2 °F 75.7 °F 68% 29.88 in 10.0 mi South 9.2 mph - N/A   Mostly Cloudy
5:55 PM 85.5 °F 95.9 °F 76.6 °F 75% 29.86 in 10.0 mi SSW 6.9 mph - N/A   Scattered Clouds
6:55 PM 86.2 °F 96.4 °F 76.3 °F 72% 29.88 in 10.0 mi SW 5.8 mph - N/A   Scattered Clouds
7:55 PM 86.2 °F 91.1 °F 70.5 °F 59% 29.90 in 10.0 mi North 4.6 mph - N/A   Scattered Clouds
8:55 PM 83.1 °F 86.6 °F 69.1 °F 62% 29.92 in 10.0 mi North 4.6 mph - N/A   Partly Cloudy
9:55 PM 81.1 °F 84.0 °F 68.2 °F 65% 29.94 in 10.0 mi North 3.5 mph - N/A   Partly Cloudy
10:55 PM 79.7 °F - 67.8 °F 67% 29.96 in 10.0 mi North 5.8 mph - N/A   Clear
11:55 PM 78.8 °F - 68.0 °F 69% 29.97 in 10.0 mi North 4.6 mph - N/A   Partly Cloudy